TimeEST,TemperatureF,Dew PointF,Humidity,Sea Level PressureIn,VisibilityMPH,Wind Direction,Wind SpeedMPH,Gust SpeedMPH,PrecipitationIn,Events,Conditions,WindDirDegrees,DateUTC
12:53 AM,28.0,24.1,85,30.50,10.0,Calm,Calm,-,N/A,,Clear,0,2012-11-17 05:53:00
1:53 AM,30.0,25.0,82,30.51,10.0,Calm,Calm,-,N/A,,Clear,0,2012-11-17 06:53:00
2:53 AM,26.1,24.1,92,30.53,10.0,Calm,Calm,-,N/A,,Clear,0,2012-11-17 07:53:00
3:53 AM,26.1,23.0,88,30.52,10.0,Calm,Calm,-,N/A,,Clear,0,2012-11-17 08:53:00
4:44 AM,26.6,24.8,93,30.50,10.0,South,3.5,-,N/A,,Mostly Cloudy,180,2012-11-17 09:44:00
4:53 AM,27.0,25.0,92,30.52,10.0,SSE,4.6,-,N/A,,Overcast,160,2012-11-17 09:53:00
5:42 AM,33.8,30.2,87,30.50,4.0,Calm,Calm,-,N/A,,Overcast,0,2012-11-17 10:42:00
5:53 AM,32.0,30.0,92,30.53,3.0,Calm,Calm,-,N/A,,Overcast,0,2012-11-17 10:53:00
6:53 AM,34.0,33.1,96,30.55,3.0,Calm,Calm,-,N/A,,Overcast,0,2012-11-17 11:53:00
7:53 AM,35.1,33.1,92,30.56,3.0,Calm,Calm,-,N/A,,Overcast,0,2012-11-17 12:53:00
8:01 AM,35.6,33.8,93,30.53,2.0,Calm,Calm,-,N/A,,Overcast,0,2012-11-17 13:01:00
8:11 AM,35.6,33.8,93,30.54,1.5,Calm,Calm,-,N/A,,Overcast,0,2012-11-17 13:11:00
8:53 AM,37.0,35.1,93,30.57,1.5,Calm,Calm,-,N/A,,Overcast,0,2012-11-17 13:53:00
9:53 AM,36.0,34.0,93,30.57,1.5,South,4.6,-,N/A,,Overcast,190,2012-11-17 14:53:00
10:02 AM,37.4,33.8,87,30.54,2.5,South,4.6,-,N/A,,Overcast,190,2012-11-17 15:02:00
10:53 AM,37.9,36.0,93,30.57,4.0,Variable,5.8,-,N/A,,Overcast,0,2012-11-17 15:53:00
11:35 AM,41.0,37.4,87,30.54,5.0,Variable,3.5,-,N/A,,Overcast,0,2012-11-17 16:35:00
11:53 AM,42.1,37.0,82,30.56,6.0,Variable,6.9,-,N/A,,Haze,0,2012-11-17 16:53:00
12:14 PM,42.8,37.4,81,30.53,7.0,SE,5.8,-,N/A,,Mostly Cloudy,130,2012-11-17 17:14:00
12:25 PM,44.6,37.4,76,30.52,7.0,SE,4.6,-,N/A,,Scattered Clouds,140,2012-11-17 17:25:00
12:53 PM,45.0,37.0,74,30.54,8.0,Variable,5.8,-,N/A,,Mostly Cloudy,0,2012-11-17 17:53:00
1:53 PM,50.0,35.1,57,30.52,8.0,Variable,4.6,-,N/A,,Mostly Cloudy,0,2012-11-17 18:53:00
2:53 PM,52.0,33.1,49,30.51,10.0,WSW,4.6,-,N/A,,Overcast,250,2012-11-17 19:53:00
3:53 PM,51.1,32.0,48,30.51,9.0,Variable,4.6,-,N/A,,Mostly Cloudy,0,2012-11-17 20:53:00
4:53 PM,48.0,30.0,50,30.51,10.0,Calm,Calm,-,N/A,,Mostly Cloudy,0,2012-11-17 21:53:00
5:53 PM,42.1,30.9,65,30.51,10.0,Calm,Calm,-,N/A,,Scattered Clouds,0,2012-11-17 22:53:00
6:53 PM,37.9,30.0,73,30.51,10.0,Calm,Calm,-,N/A,,Scattered Clouds,0,2012-11-17 23:53:00
7:53 PM,37.9,28.9,70,30.51,9.0,Calm,Calm,-,N/A,,Clear,0,2012-11-18 00:53:00
8:53 PM,39.9,28.9,65,30.50,10.0,Calm,Calm,-,N/A,,Clear,0,2012-11-18 01:53:00
9:53 PM,41.0,30.9,67,30.50,8.0,Calm,Calm,-,N/A,,Clear,0,2012-11-18 02:53:00
10:53 PM,39.9,30.9,70,30.51,7.0,SSE,3.5,-,N/A,,Clear,160,2012-11-18 03:53:00
11:53 PM,39.9,30.9,70,30.51,7.0,Calm,Calm,-,N/A,,Clear,0,2012-11-18 04:53:00